Погода Пономарёво

Погода Пономарёво : погода сейчас, прогноз погоды и архив. Всё, что Вы хотите узнать о погоде Пономарёво!

Поиск расширенной информации на нашем сайте:

Другие новости

Новости СМИ2

Главная страница сайта

Новости сайта

02.10.2013

Напоминаем, что на нашем новом сайте вы можете получить высокодетализированные прогнозы погоды по пунктам России, СНГ и мира (включающие важные для авиации метеовеличины, такие как направление и скорость ветра, видимость, явления погоды, количество и форма облачности, нижняя и верхняя граница облачности), а также ознакомиться с разнообразными материалами по авиационной метеорологии и подборкой полезных ссылок на эту тему.

Сайт Метеоцентр.Азия посвящён разработке технологий оптимизации авиаметеорологического обслуживания, включая проектирование и перспективное создание нескольких автоматизированных авиаметеорологических систем:
- система выпуска высокодетальных прогностических карт явлений погоды для нижнего воздушного пространства по России и ближнему зарубежью;
- система верификации прогнозов TAF (выпускаемых синоптиками официальных АМСГ РФ и ближнего зарубежья) и AUTOTAF (выпускаемых сайтом Метеоцентр.Азия) - выявление ошибок, онлайн-сопоставление с фактической погодой METAR, автоматическое внесение коррективов в прогнозы при резком отклонении фактической погоды от прогноза, подсчёт оправдываемости прогнозов по элементам и в целом;
- система обработки, анализа и отображения авиаметеорологической информации для применения провайдерами метеорологической информации.


Погода Пономарёво - сегодня

Время (UTC), дата Ветер
(°,м/с) 
Видим.   Явления Облачность Т
(°С)
Тd
(°С)
f(%) Тe
(°С)
Pmin
(гПа)
dP
(гПа)
Po
(мм)
O2
(г/м3)
Тmin Tmax R s Состояние
почвы
18 18.01.17 120 (ЮВ) н/о    6/0 средняя, верхняя 
[Ac trans|Ci fib]
-16 -20.2 70 -18  1040.9  -1.7  736  317           
21 18.01.17 120 (ЮВ) н/о    9/0 средняя, верхняя 
[Ac trans|Ci sp]
-14 -18.3 70 -16  1038.7  -1.6  735  314           
00 19.01.17 100 (В) н/о    10/10 1000 м 
[Sc]
-13 -18.2 65 -13  1038.3  -0.2  735  312  -16.6      69  равномерный
сухой снег
100% 
03 19.01.17 070 (В) 20000 м    10/10 1000 м 
[Sc]
-12.4 -19.6 55 -12  1037.3  -0.7  734  311           
06 19.01.17 120 (ЮВ) 4000 м  слаб. снег  10/0 средняя 
[As op]
-11.6 -18.8 55 -11  1036.8  -0.5  734  310           
09 19.01.17 120 (ЮВ) 4000 м  слаб. снег  10/0 средняя 
[Ac As]
-11.2 -13.2 85 -11  1036.6  0.1  734  310           
12 19.01.17 тихо ()   н/о  слаб. снег  10/10 1000 м 
[Ac As]
-13.2 -14.2 92 -13  1038.1  1.1  735  312    -11.2     
15 19.01.17 тихо ()   н/о  слаб. снег  10/0 средняя 
[Ac As]
-13.1 -15.1 85 -13  1038.9  0.6  735  312           
18 19.01.17 тихо ()   н/о  слаб. снег  10/0 средняя 
[Ac As]
-14 -15.3 90 -14  1039.1  735  314           
21 19.01.17 тихо ()   н/о  слаб. снег  10/0 средняя 
[Ac As]
-13.4 -15.4 85 -13  1040.2  1.2  736  313           
00 20.01.17 тихо ()   н/о  {снег}  8/0 средняя 
[Ac trans]
-13.4 -15.4 85 -13  1039.8  -0.4  736  313  -14    0.4  70  равномерный
сухой снег
100% 
03 20.01.17 тихо ()   20000 м    3/0 средняя 
[Ac trans]
-15.8 -17.7 85 -16  1040.5  736  316  -16.7         
06 20.01.17 120 (ЮВ) 20000 м    ясно 
-10.4 -16.7 60 -10  1038.3  -0.7  735  309           
09 20.01.17 120 (ЮВ) 20000 м    3/0 средняя 
[Ac trans]
-9.4 -16.3 57 -9  1036.9  -1.2  734  308           
12 20.01.17 340 (С) н/о    ясно 
-11.8 -17.1 65 -12  1027.1  -0.4  734  310    -8.9       
15 20.01.17 150 (ЮВ) н/о    3/0 верхняя 
[Ci fib]
-12.7 -17.9 65 -16  1036.7  -0.6  734  311           
18 20.01.17 140 (ЮВ) н/о    ясно 
-13.1 -19.2 60 -13  1036.3  -0.4  733  312           
21 20.01.17 140 (ЮВ) н/о    ясно 
-13.4 -19.5 60 -16  1037.2  0.9  734  312           
00 21.01.17 140 (ЮВ) н/о    ясно 
-13.4 -19.5 60 -16  1036.7  -0.5  734  312  -13.4      70  равномерный
сухой снег
100% 
03 21.01.17 100 (В) 20000 м    9/0 верхняя 
[Ci sp]
-12.8 -19 60 -13  1034.8  -1.8  732  311           
06 21.01.17 130 (ЮВ) 20000 м    4/0 верхняя 
[Ci fib]
-8.2 -17.7 46 -8  1032.7  -0.9  732  305           
09 21.01.17 110 (В) 20000 м    4/0 верхняя 
[Ci fib]
-7.1 -16.4 47 -7  1029.7  -2.6  730  303           
12 21.01.17 110 (В) н/о    9/0 средняя, верхняя 
[Ac trans|Ci fib]
-9.1 -16.5 55 -11  1029.3  -0.8  729  305    -6.4       
15 21.01.17 140 (ЮВ) н/о    3/0 средняя 
[Ac trans]
-10.2 -16.5 60 -10  1027.8  -1.6  728  306           
18 21.01.17 150 (ЮВ) н/о    3/0 средняя 
[Ac trans]
-11.2 -16.5 65 -13  1026.3  -1.6  727  307           
Время (UTC), дата Ветер
(°,м/с) 
Видим.   Явления Облачность Т
(°С)
Тd
(°С)
f(%) Тe
(°С)
Pmin
(гПа)
dP
(гПа)
Po
(мм)
O2
(г/м3)
Тmin Tmax R s Состояние
почвы

Для получения пояснительной информации подведите курсор к названию столбца.

ПОГОДА Пономарёво - архив

Всё, что Вы хотите узнать о погоде Пономарёво - удобно и подробно!

Выберите нужную дату (начиная с 1 января 2015* года) и нажмите кнопку "Найти".
Будут отображены архивные сводки погоды по пункту Пономарёво, начиная с указанной даты.


Отображать данные в формате CSV (для использования в таблицах Excel)


Внимание! Наш архив погоды предназначен исключительно для личного некоммерческого использования в познавательных целях. Если Вам необходимы официальные справки о состоянии погоды (для производственных, юридических, коммерческих и т.п. целей), обращайтесь в органы Росгидромета.

*Примечание: данная дата относится к архиву по метеостанциям СССР (Россия, СНГ, Балтия).
Архив по метеостанциям Зарубежной Европы и Азии (кроме Китая) хранится 10 дней, по другим регионам земного шара (Китай, Африка, Америка, Австралия, Океания) - 1 день.

Пономарёво - район местоположения метеостанции


Название, широта, долгота, высота метеостанции:
Пономарёво 53.7°ш. 94.2°д. 445 м над ур. моря [Российская Федерация]

Дополнительная информация

В oтличие oт бoльшинства пoгoдных сайтoв мы публикуем пoдрoбную метеoинфoрмацию в детальнoм прoфессиoнальнoм фoрмате.

Характеристики температуры и влажнoсти вoздуха измеряются на высoте 2 м в тени вдали oт зданий и деревьев.
Скoрoсть ветра измеряется на высoте 10 м (на урoвне рoста челoвека скoрoсть ветра ниже в 1.5-2 раза). Если метеoстанция нахoдится в гoрoде или в лесу, тo скoрoсть ветра занижена на 2-4 м/с пo сравнению с oткрытым местoм. Скoрoсть ветра над акватoриями крупных рек и oзёр, а также на вершинах хoлмoв на 2-5 м/с выше, чем в oбычных услoвиях.
Атмoсфернoе давление в разных тoчках местнoсти мoжет значительнo oтличаться oт давления на метеoстанции, в зависимoсти oт услoвий рельефа (при пoдъёме на 10 м давление пoнижается примернo на 1 мм рт.ст.).